PSLV DEB, 41792

Orbit data source: Space-Track

PSLV DEB, 41792 is space debris in SSO originally from a launch on Mon, 26 Sep 2016 UTC launched from the Sirharikota (SRI). Debris objects in space refer to the collection of defunct objects orbiting the Earth. Examples of debris include non-operational satellites, rocket bodies, and fragments generated from explosions, collisions, or faulty payload assembly.

Loading next visibility...
PSLV DEB details
Identifier
41792, 2016-059K
Orbit
SSO
Last TLE update8 hours ago
Origin
Flag of INISRO (IN / IND)
ManufacturerVSSC/LPSC
MissionSpacecraft
Bus & MotorUnknown
MassUnknown
Launch date (UTC)
2016-09-26 (8 years ago)
Launch vehicleUnknown
Launch site
Sirharikota (SRI)
Object type
Payload
Rocket body
Debris
Shape & HBRCone + Cyl, 3 m
Radar Cross Section7.069 m², Large (>1 m²)

Expand to show TLE details & history

TLE from 8 hours ago
0 PSLV DEB
1 41792U 16059K   24361.55757093  .00008553  00000-0  12893-2 0  9997
2 41792  97.8269  29.3536 0024466  92.7229 267.6781 14.74403231441495
Epoch: 2024-12-26T13:22Z
Definitive object data (Epoch: 2024-12-26T13:22:54.128Z)
Latitude-0.00001°
Longitude93.09282°
Altitude650.801 km
Speed7.532 km/s
True Right ascension01h 57m 24s
True Declination0° 00' 00"
Sunlit
Object was in daylight at TLE epoch
Visualization TLE readout
Latitude-19.46662°
Longitude96.18694°
Altitude660.683 km
Speed7.523 km/s
Apparent Right ascension04h 48m 50s
Apparent Declination-40° 19' 03"
Sunlit
Object is in daylight
Visualization observer readout
Local Sidereal Time20:49:12
Azimuth110.894° ESE
Elevation-44.973°
Doppler factor1
Orbital elements
Apogee altitude661.272 km
Perigee altitude626.911 km
Semi-major axis7,022.228 km
Eccentricity0.0024466
Inclination97.8269°
RAAN29.3536°
Arg. of periapsis92.7229°
True anomaly267.39801°
Mean anomaly267.6781°
Eccentric anomaly267.53805°
Mean motion3.68834 °/min
BSTAR0.0012893
Orbital period97.6 mins
Loading maneuver chart data...
Loading historical data...
Loading historical data...
Loading historical data...
Loading historical data...
Loading historical data...
Loading historical data...
Loading historical data...

PSLV DEB Visibility forecast

Observer location: undefined°, undefined

Span
Click to sort rows by Start time (UTC) header in descending order
Start Az.
Max El. time (UTC)
Max El. Az.
Max El.
End time (UTC)
End Az.
4 mins2024-12-27 00:57:13.137Z93.63° ESE2024-12-27 00:59:13.137Z62.802° ENE15.602°2024-12-27 01:01:13.137Z33.199° NE
7 mins2024-12-27 02:32:13.137Z193.153° SSW2024-12-27 02:35:13.137Z255.081° W35.341°2024-12-27 02:39:13.137Z333.066° NNW
6 mins2024-12-27 14:24:13.137Z41.234° NE2024-12-27 14:27:13.137Z109.279° ESE29.929°2024-12-27 14:30:13.137Z160.396° S
5 mins2024-12-27 16:01:13.137Z327.277° NNW2024-12-27 16:03:13.137Z293.879° NW18.817°2024-12-27 16:06:13.137Z248.537° W
|